Historyczne dane pomiarowe

Dodano dane terminowe – wersja testowa.

Dane z okresu 1951-2019

Wersja bazy: 1.34 [2019-03-16, lista zmian], aktualizacja planowana na 2019-04-15

Dane meteo z obszaru Polski uzyskane na podstawie danych udostępnionych przez Instytut Meteorologii i Gospodarki Wodnej – Państwowy Instytut Badawczy.

 

Wybierz Datę:    

       

TemperaturaWilgotnośćWiatrCiśnienieOpadyŚniegCzas trwania zjawisk
 Stacja t tx tn tng RH VA  wxwx mslp ppp RRR   cm mm wxwxwxwxwxwxwx
1956-11-09 -6.4 0.0-11.7- 82.8- 3.3 2.0---- 0.0------------
1956-11-08 -4.9 1.3 -7.5- 95.0- 3.0 0.0---- 0.0------------
1956-11-07 0.1 0.8 -0.1- 99.5- 8.0 0.3---- 7.1------------
1956-11-06 1.7 4.7 0.2- 87.5- 4.3 6.3---- 17.4------------
1956-11-05 4.9 8.1 1.4- 79.8- 8.0 5.7---- 2.2------------
1956-11-04 2.1 4.4 -2.7- 77.5- 4.7 4.7---- 0.0------------
1956-11-03 0.0 2.3 -2.6- 94.5- 6.7 1.0---- 0.0------------
1956-11-02 0.2 0.8 -2.8- 94.0- 8.0 1.7---- 0.0------------
1956-11-01 -1.6 3.4 -7.6- 87.5- 0.7 0.3---- 0.0------------
1956-10-31 -4.8 3.8 -6.2- 92.0- 4.3 3.7---- 0.0------------
1956-10-30 4.7 7.9 3.4- 91.5- 7.7 3.7---- 0.0------------
1956-10-29 5.2 6.3 4.4- 96.8- 8.0 4.3---- 17.5------------
1956-10-28 6.8 9.3 5.2- 94.3- 8.0 3.7---- 27.5------------
1956-10-27 7.4 10.6 5.6- 97.3- 8.0 0.3---- 7.5------------
1956-10-26 7.0 10.7 6.6- 94.5- 8.0 2.7---- 12.9------------
1956-10-25 11.8 17.3 8.4- 80.3- 5.3 4.0---- 2.1------------
1956-10-24 12.6 18.3 6.0- 76.5- 2.7 4.0---- 0.0------------
1956-10-23 10.1 16.6 4.9- 88.3- 3.3 0.3---- 0.0------------
1956-10-22 11.4 19.8 6.9- 83.0- 0.7 0.3---- 0.0------------
1956-10-21 11.6 19.1 7.5- 90.8- 3.0 0.7---- 0.0------------
1956-10-20 12.8 15.7 8.9- 90.8- 8.0 2.3---- 0.0------------
1956-10-19 13.0 15.1 11.5- 91.3- 7.7 1.7---- 0.4------------
1956-10-18 11.8 13.0 8.4- 89.0- 6.3 1.7---- 2.9------------
1956-10-17 9.6 17.3 0.7- 75.8- 0.0 2.3---- 0.0------------
1956-10-16 4.7 12.9 -1.9- 70.5- 0.0 1.7---- 0.0------------
1956-10-15 4.1 9.4 0.9- 94.3- 3.3 1.0---- 0.0------------
1956-10-14 9.4 12.7 6.4- 89.5- 6.7 4.3---- 0.7------------
1956-10-13 11.0 12.5 6.6- 66.8- 8.0 4.7---- 0.0------------
1956-10-12 9.4 14.3 5.9- 78.0- 3.7 2.0---- 0.0------------
1956-10-11 6.0 12.3 -0.8- 78.5- 0.7 1.7---- 0.0------------
1956-10-10 3.2 8.6 0.3- 81.5- 2.0 1.7---- 0.0------------
1956-10-09 7.7 10.9 2.4- 85.8- 8.0 3.3---- 2.9------------
1956-10-08 5.0 9.7 0.4- 82.8- 6.3 2.7---- 0.0------------
1956-10-07 5.3 10.1 4.4- 81.5- 4.3 3.3---- 0.0------------
1956-10-06 6.0 8.7 5.0- 88.0- 8.0 5.7---- 3.2------------
1956-10-05 9.4 13.3 7.2- 84.0- 7.0 2.3---- 4.5------------
1956-10-04 11.4 14.3 9.1- 90.5- 8.0 2.7---- 1.4------------
1956-10-03 14.2 21.6 9.9- 73.8- 5.3 3.0---- 7.8------------
1956-10-02 19.8 26.9 11.9- 61.3- 5.7 4.7---- 0.0------------
1956-10-01 17.0 25.4 10.4- 76.0- 2.7 2.0---- 0.0------------
1956-09-30 15.4 20.2 11.8- 81.0- 2.7 0.3---- 0.0------------
1956-09-29 16.7 23.0 12.0- 77.8- 3.7 6.0---- 0.0------------
1956-09-28 16.3 18.3 13.1- 79.0- 6.3 7.7---- 0.0------------
1956-09-27 17.0 22.7 13.2- 73.0- 3.7 4.0---- 0.0------------
1956-09-26 16.9 24.6 7.2- 55.5- 0.0 6.0---- 0.0------------
1956-09-25 13.2 23.6 3.6- 70.5- 0.0 2.3---- 0.0------------
1956-09-24 10.8 18.4 5.6- 75.3- 2.3 3.3---- 0.0------------
1956-09-23 12.1 20.7 5.3- 79.3- 0.0 2.3---- 0.0------------
1956-09-22 13.7 21.7 3.2- 77.8- 0.0 2.0---- 0.0------------
1956-09-21 11.2 19.3 3.2- 85.5- 0.0 1.0---- 0.0------------
1956-09-20 9.8 17.9 1.8- 83.0- 3.0 1.0---- 0.0------------
1956-09-19 8.8 15.5 1.8- 80.8- 0.3 2.7---- 0.0------------
1956-09-18 7.8 13.3 4.5- 89.5- 5.3 1.7---- 0.0------------
1956-09-17 8.8 12.4 6.6- 96.3- 6.3 5.0---- 7.9------------
1956-09-16 12.0 18.1 4.7- 84.3- 3.0 2.7---- 0.0------------
1956-09-15 9.9 16.4 4.7- 90.5- 4.3 3.0---- 0.0------------
1956-09-14 9.1 15.8 6.6- 87.8- 2.3 4.3---- 0.0------------
1956-09-13 9.3 14.2 7.8- 94.0- 7.3 5.0---- 7.0------------
1956-09-12 11.8 15.8 8.8- 88.5- 5.7 5.0---- 1.6------------
1956-09-11 16.7 20.4 14.2- 85.5- 4.7 5.7---- 3.4------------
197.6 ms

 

Źródłem pochodzenia danych jest Instytut Meteorologii i Gospodarki Wodnej – Państwowy Instytut Badawczy. Dane Instytutu Meteorologii i Gospodarki Wodnej – Państwowego Instytutu Badawczego zostały przetworzone.

Dane źródłowe można odnaleźć na stronie https://dane.imgw.pl